Change the Weather History Date:

Thursday, February 14, 2013

  Actual Average Record
Temperature  
Mean Temperature 46 °F -  
Max Temperature 60 °F 50 °F 71 °F (2005)
Min Temperature 33 °F 31 °F 19 °F (2002)
Degree Days  
Heating Degree Days 18    
Moisture  
Dew Point 28 °F    
Average Humidity 47    
Maximum Humidity 70    
Minimum Humidity 29    
Precipitation  
Precipitation 0.00 in - - ()
Sea Level Pressure  
Sea Level Pressure 30.00 in    
Wind  
Wind Speed 4 mph (NW)    
Max Wind Speed 10 mph    
Max Gust Speed -    
Visibility 10 miles    
Events      
Averages and records for this station are not official NWS values.
T = Trace of Precipitation, MM = Missing Value Source: NWS Daily Summary

Daily Weather History Graph

Daily Weather History Graph

Search for Another Location

Airport or City:

Trip Planner

Search our weather history database for the weather conditions in past years. The results will help you decide how hot, cold, wet, or windy it might be!

Date:

Astronomy

Feb. 14, 2013 Rise Set
Actual Time 6:58 AM CST 5:50 PM CST
Civil Twilight 6:32 AM CST 6:17 PM CST
Nautical Twilight 6:02 AM CST 6:47 PM CST
Astronomical Twilight 5:32 AM CST 7:17 PM CST
Moon 9:10 AM CST (2/14) 10:43 PM CST (2/14)
Length of Visible Light 11h 44m
Length of Day
10h 51m
Waxing Crescent, 22% of the Moon is Illuminated
Feb 14
Waxing Crescent
Feb 17
First Quarter
Feb 25
Full
Mar 4
Last Quarter
Mar 11
New

Hourly Weather History & Observations

Time (CST) Temp. Windchill Dew Point Humidity Pressure Visibility Wind Dir Wind Speed Gust Speed Precip Events Conditions
12:15 AM 39.2 °F 35.9 °F 28.4 °F 65% 29.93 in 10.0 mi WSW 4.6 mph - N/A   Clear
12:35 AM 39.2 °F - 28.4 °F 65% 29.93 in 10.0 mi Calm Calm - N/A   Clear
12:55 AM 39.2 °F - 28.4 °F 65% 29.93 in 10.0 mi Calm Calm - N/A   Clear
1:16 AM 39.2 °F 37.0 °F 28.4 °F 65% 29.93 in 10.0 mi West 3.5 mph - N/A   Clear
1:55 AM 39.2 °F - 26.6 °F 61% 29.93 in 10.0 mi Calm Calm - N/A   Clear
2:16 AM 39.2 °F - 26.6 °F 61% 29.93 in 10.0 mi Calm Calm - N/A   Clear
2:35 AM 41.0 °F - 26.6 °F 57% 29.94 in 10.0 mi Calm Calm - N/A   Clear
2:55 AM 39.2 °F - 26.6 °F 61% 29.93 in 10.0 mi Calm Calm - N/A   Clear
3:55 AM 39.2 °F - 26.6 °F 61% 29.93 in 10.0 mi Calm Calm - N/A   Clear
4:55 AM 37.4 °F - 26.6 °F 65% 29.93 in 10.0 mi Calm Calm - N/A   Clear
5:35 AM 35.6 °F - 24.8 °F 65% 29.94 in 10.0 mi Calm Calm - N/A   Clear
5:55 AM 35.6 °F - 26.6 °F 70% 29.93 in 10.0 mi Calm Calm - N/A   Clear
6:35 AM 33.8 °F - 24.8 °F 70% 29.94 in 10.0 mi Calm Calm - N/A   Clear
6:55 AM 35.6 °F - 26.6 °F 70% 29.94 in 10.0 mi Calm Calm - N/A   Clear
7:15 AM 37.4 °F - 24.8 °F 60% 29.95 in 10.0 mi Calm Calm - N/A   Clear
8:15 AM 42.8 °F - 24.8 °F 49% 29.98 in 10.0 mi Calm Calm - N/A   Clear
8:35 AM 44.6 °F 42.2 °F 24.8 °F 46% 29.98 in 10.0 mi WSW 4.6 mph - N/A   Clear
8:55 AM 42.8 °F - 28.4 °F 57% 29.99 in 10.0 mi Calm Calm - N/A   Clear
9:16 AM 48.2 °F - 26.6 °F 43% 29.99 in 10.0 mi WSW 3.5 mph - N/A   Clear
9:55 AM 50.0 °F - 28.4 °F 43% 30.00 in 10.0 mi NE 5.8 mph - N/A   Clear
10:35 AM 53.6 °F - 28.4 °F 38% 30.00 in 10.0 mi Calm Calm - N/A   Clear
11:35 AM 55.4 °F - 26.6 °F 33% 29.99 in 10.0 mi WSW 8.1 mph - N/A   Clear
12:15 PM 57.2 °F - 28.4 °F 33% 29.99 in 10.0 mi West 6.9 mph - N/A   Clear
12:55 PM 59.0 °F - 28.4 °F 31% 29.98 in 10.0 mi West 9.2 mph - N/A   Clear
1:15 PM 60.8 °F - 28.4 °F 29% 29.97 in 10.0 mi WNW 8.1 mph - N/A   Clear
2:15 PM 60.8 °F - 30.2 °F 31% 29.97 in 10.0 mi North 10.4 mph - N/A   Clear
2:35 PM 60.8 °F - 30.2 °F 31% 29.97 in 10.0 mi NNW 9.2 mph - N/A   Clear
2:55 PM 59.0 °F - 30.2 °F 34% 29.96 in 10.0 mi NNW 8.1 mph - N/A   Clear
3:55 PM 57.2 °F - 30.2 °F 36% 29.98 in 10.0 mi NNW 9.2 mph - N/A   Clear
4:15 PM 57.2 °F - 30.2 °F 36% 29.99 in 10.0 mi NW 9.2 mph - N/A   Clear
4:55 PM 57.2 °F - 30.2 °F 36% 30.00 in 10.0 mi NW 9.2 mph - N/A   Clear
5:15 PM 57.2 °F - 30.2 °F 36% 30.00 in 10.0 mi NW 6.9 mph - N/A   Clear
5:35 PM 55.4 °F - 30.2 °F 38% 30.01 in 10.0 mi NNW 8.1 mph - N/A   Clear
5:55 PM 53.6 °F - 30.2 °F 41% 30.01 in 10.0 mi NNW 5.8 mph - N/A   Clear
6:15 PM 53.6 °F - 30.2 °F 41% 30.02 in 10.0 mi NNW 5.8 mph - N/A   Clear
6:35 PM 53.6 °F - 28.4 °F 38% 30.03 in 10.0 mi NW 8.1 mph - N/A   Clear
6:55 PM 53.6 °F - 28.4 °F 38% 30.04 in 10.0 mi NNW 5.8 mph - N/A   Clear
7:15 PM 51.8 °F - 28.4 °F 41% 30.04 in 10.0 mi NNW 5.8 mph - N/A   Clear
7:55 PM 50.0 °F - 26.6 °F 40% 30.05 in 10.0 mi NW 5.8 mph - N/A   Clear
8:15 PM 50.0 °F - 26.6 °F 40% 30.05 in 10.0 mi NW 8.1 mph - N/A   Clear
8:35 PM 48.2 °F - 26.6 °F 43% 30.06 in 10.0 mi NW 6.9 mph - N/A   Clear
8:55 PM 48.2 °F - 26.6 °F 43% 30.07 in 10.0 mi NW 6.9 mph - N/A   Clear
9:15 PM 48.2 °F - 26.6 °F 43% 30.08 in 10.0 mi NW 9.2 mph - N/A   Clear
9:35 PM 48.2 °F - 26.6 °F 43% 30.08 in 10.0 mi NNW 6.9 mph - N/A   Clear
9:55 PM 48.2 °F - 26.6 °F 43% 30.09 in 10.0 mi NW 5.8 mph - N/A   Partly Cloudy
10:15 PM 46.4 °F 43.5 °F 26.6 °F 46% 30.10 in 10.0 mi NW 5.8 mph - N/A   Partly Cloudy
10:35 PM 46.4 °F 42.9 °F 26.6 °F 46% 30.10 in 10.0 mi NW 6.9 mph - N/A   Partly Cloudy
10:55 PM 46.4 °F 43.5 °F 26.6 °F 46% 30.11 in 10.0 mi NNW 5.8 mph - N/A   Clear
11:15 PM 46.4 °F 43.5 °F 26.6 °F 46% 30.11 in 10.0 mi NW 5.8 mph - N/A   Clear
11:35 PM 46.4 °F 42.4 °F 26.6 °F 46% 30.11 in 10.0 mi NNW 8.1 mph - N/A   Scattered Clouds
11:55 PM 46.4 °F 43.5 °F 26.6 °F 46% 30.11 in 10.0 mi NW 5.8 mph - N/A   Mostly Cloudy